Flag for Canada Weather past 2 weeks in Richmond Hill, Ontario, Canada

Now
81 °F

Scattered clouds.


Feels Like: 81 °F
Forecast: 62 / 82 °F
Wind: 7 mph from Southwest

Location: Toronto Buttonville

Current Time: Jul 31, 2015 at 2:03:51 PM

Latest Report: Jul 31, 2015 at 1:00 PM


Visibility: 15 mi

Pressure: 29.81 "Hg

Humidity: 45%

Dew point: 57 °F

Location of Richmond HillLocation

Historic Weather in Richmond Hill — Graph

°F

Richmond Hill temperature yesterday

Maximum temperature yesterday: 84 °F (at 12:00 PM)
Minimum temperature yesterday: 72 °F (at 6:00 AM)
Average temperature yesterday: 79 °F

Past Weeks' High & Low Weather Summary

 TemperatureHumidityPressure
High91 °F (Jul 27, 4:00 PM)100% (Jul 18, 4:48 AM)30.13 "Hg (Jul 18, 4:48 AM)
Low55 °F (Jul 23, 6:00 AM)31% (Jul 30, 6:00 PM)29.61 "Hg (Jul 21, 3:00 AM)
Average74 °F60%29.88 "Hg
* Reported Jul 16 1:00 PM — Jul 31 1:00 PM, Richmond Hill, Weather by CustomWeather, © 2015

Note: Actual official high and low records may vary slightly from our data, if they occured in-between our weather recording intervals... More about our weather records

Advertising

Richmond Hill weather history for previous 24 hours

 ConditionsComfort  
Time TempWeatherWind HumidityBarometerVisibility
1:00 PM
Fri, Jul 31
81 °FScattered clouds.7 mph45%29.81 "Hg15 mi
12:00 PM81 °FPassing clouds.14 mph45%29.83 "Hg15 mi
11:00 AM79 °FPassing clouds.12 mph48%29.84 "Hg15 mi
10:00 AM77 °FPassing clouds.10 mph47%29.85 "Hg15 mi
9:00 AM73 °FPassing clouds.6 mph50%29.86 "Hg15 mi
8:00 AM68 °FPassing clouds.3 mph64%29.88 "Hg15 mi
7:00 AM64 °FPassing clouds.3 mph68%29.88 "Hg15 mi
6:00 AM63 °FPassing clouds.2 mph73%29.87 "Hg15 mi
5:00 AM63 °FClear.5 mph73%29.87 "Hg15 mi
4:00 AM64 °FClear.6 mph68%29.87 "Hg15 mi
3:00 AM66 °FClear.7 mph64%29.87 "Hg15 mi
2:00 AM68 °FClear.9 mph64%29.87 "Hg15 mi
1:00 AM70 °FClear.8 mph60%29.86 "Hg15 mi
12:00 AM72 °FPassing clouds.7 mph61%29.86 "Hg15 mi
11:00 PM
Thu, Jul 30
73 °FPassing clouds.3 mph57%29.85 "Hg15 mi
10:00 PM73 °FPassing clouds.12 mph61%29.85 "Hg15 mi
9:00 PM79 °FScattered clouds.8 mph45%29.82 "Hg15 mi
8:00 PM81 °FPassing clouds.14 mph39%29.82 "Hg15 mi
7:00 PM82 °FPassing clouds.10 mph37%29.82 "Hg15 mi
6:00 PM84 °FPassing clouds.16 mph31%29.81 "Hg15 mi
5:00 PM84 °FPassing clouds.17 mph33%29.80 "Hg15 mi
4:00 PM84 °FPassing clouds.20 mph33%29.80 "Hg15 mi
3:00 PM84 °FScattered clouds.10 mph35%29.81 "Hg15 mi
2:00 PM82 °FScattered clouds.17 mph37%29.82 "Hg15 mi
Weather by CustomWeather, © 2015

See weather overviewHow to use our weather pages